| Date Time MST |
Temp °F |
RH % |
DewPt °F |
Wind mph |
Dir ° |
Gust mph |
Dir ° |
Press in Hg |
Solar W/m^2 |
Prec in |
|---|---|---|---|---|---|---|---|---|---|---|
| 2026-05-04 18:50 | 52.4 | 69.4 | 42.7 | 5.2 | 165 | 8.3 | 136 | 24.691 | 5.4 | 0.00 |
| 2026-05-04 18:45 | 52.5 | 69.2 | 42.7 | 4.9 | 138 | 7.1 | 136 | 24.691 | 7.0 | 0.00 |
| 2026-05-04 18:40 | 52.6 | 70.0 | 43.1 | 3.8 | 103 | 6.0 | 112 | 24.691 | 9.5 | 0.00 |
| 2026-05-04 18:35 | 52.8 | 71.0 | 43.7 | 3.7 | 114 | 5.3 | 94 | 24.691 | 12.1 | 0.00 |
| 2026-05-04 18:30 | 53.1 | 69.9 | 43.5 | 3.4 | 112 | 4.8 | 92 | 24.691 | 13.3 | 0.00 |
| 2026-05-04 18:25 | 53.5 | 68.1 | 43.3 | 4.8 | 101 | 8.2 | 163 | 24.691 | 12.2 | 0.00 |
| 2026-05-04 18:20 | 52.7 | 62.2 | 40.1 | 8.8 | 167 | 12.7 | 105 | 24.691 | 12.4 | 0.00 |
| 2026-05-04 18:15 | 53.2 | 70.7 | 43.9 | 8.3 | 62 | 11.1 | 67 | 24.691 | 14.1 | 0.00 |
| 2026-05-04 18:10 | 54.1 | 64.6 | 42.4 | 3.3 | 70 | 9.4 | 70 | 24.687 | 17.2 | 0.00 |
| 2026-05-04 18:05 | 53.9 | 62.3 | 41.3 | 4.0 | 203 | 6.1 | 185 | 24.685 | 17.8 | 0.00 |
| 2026-05-04 18:00 | 53.9 | 63.8 | 42.0 | 6.7 | 186 | 10.0 | 191 | 24.680 | 15.6 | 0.00 |
| 2026-05-04 17:55 | 53.8 | 61.9 | 41.0 | 7.6 | 197 | 10.1 | 211 | 24.679 | 13.8 | 0.00 |
| 2026-05-04 17:50 | 53.6 | 63.1 | 41.4 | 8.3 | 197 | 14.0 | 218 | 24.679 | 17.4 | 0.00 |
| 2026-05-04 17:45 | 53.4 | 64.5 | 41.8 | 7.1 | 211 | 12.3 | 195 | 24.680 | 22.6 | 0.00 |
| 2026-05-04 17:40 | 53.5 | 67.6 | 43.0 | 6.8 | 220 | 11.3 | 216 | 24.680 | 28.9 | 0.00 |
| 2026-05-04 17:35 | 53.6 | 65.7 | 42.4 | 8.8 | 210 | 13.7 | 188 | 24.678 | 35.5 | 0.00 |
| 2026-05-04 17:30 | 53.7 | 63.4 | 41.6 | 11.4 | 195 | 15.0 | 192 | 24.676 | 42.9 | 0.00 |
| 2026-05-04 17:25 | 53.6 | 64.7 | 42.0 | 13.1 | 184 | 18.0 | 196 | 24.678 | 48.0 | 0.01 |
| 2026-05-04 17:20 | 54.0 | 66.2 | 43.0 | 9.5 | 187 | 13.8 | 201 | 24.679 | 40.5 | 0.00 |
| 2026-05-04 17:15 | 55.1 | 62.7 | 42.7 | 8.8 | 154 | 14.2 | 153 | 24.680 | 27.0 | 0.00 |
| 2026-05-04 17:10 | 56.1 | 58.4 | 41.7 | 10.0 | 158 | 15.0 | 146 | 24.680 | 15.8 | 0.00 |
| 2026-05-04 17:05 | 57.6 | 53.0 | 40.6 | 6.0 | 189 | 9.7 | 207 | 24.680 | 10.7 | 0.01 |
| 2026-05-04 17:00 | 58.2 | 43.3 | 36.0 | 10.7 | 16 | 16.4 | 164 | 24.681 | 7.7 | 0.00 |
| 2026-05-04 16:55 | 58.5 | 43.3 | 36.3 | 18.1 | 143 | 29.9 | 245 | 24.671 | 6.8 | 0.00 |
| 2026-05-04 16:50 | 60.7 | 46.6 | 40.2 | 14.2 | 257 | 21.9 | 257 | 24.668 | 6.9 | 0.00 |
| 2026-05-04 16:45 | 61.1 | 35.3 | 33.5 | 10.3 | 250 | 12.6 | 258 | 24.668 | 7.7 | 0.00 |
| 2026-05-04 16:40 | 61.1 | 35.5 | 33.7 | 9.0 | 260 | 12.2 | 274 | 24.665 | 9.6 | 0.00 |
| 2026-05-04 16:35 | 61.3 | 35.5 | 33.8 | 9.6 | 258 | 11.0 | 274 | 24.664 | 11.2 | 0.00 |
| 2026-05-04 16:30 | 61.4 | 35.1 | 33.6 | 8.3 | 260 | 12.1 | 270 | 24.661 | 13.4 | 0.00 |
| 2026-05-04 16:25 | 61.7 | 33.5 | 32.7 | 7.8 | 276 | 10.1 | 276 | 24.656 | 17.9 | 0.00 |
| Date Time MST |
Temp °C |
RH % |
DewPt °C |
Wind m/s |
Dir ° |
Gust m/s |
Dir ° |
Press hPa |
Solar W/m^2 |
Prec mm |
|---|---|---|---|---|---|---|---|---|---|---|
| 2026-05-04 18:50 | 11.3 | 69.4 | 5.9 | 2.3 | 165 | 3.7 | 136 | 836.13 | 5.4 | 0.00 |
| 2026-05-04 18:45 | 11.4 | 69.2 | 6.0 | 2.2 | 138 | 3.2 | 136 | 836.12 | 7.0 | 0.00 |
| 2026-05-04 18:40 | 11.4 | 70.0 | 6.2 | 1.7 | 103 | 2.7 | 112 | 836.12 | 9.5 | 0.00 |
| 2026-05-04 18:35 | 11.6 | 71.0 | 6.5 | 1.6 | 114 | 2.4 | 94 | 836.12 | 12.1 | 0.00 |
| 2026-05-04 18:30 | 11.7 | 69.9 | 6.4 | 1.5 | 112 | 2.1 | 92 | 836.13 | 13.3 | 0.00 |
| 2026-05-04 18:25 | 12.0 | 68.1 | 6.3 | 2.2 | 101 | 3.7 | 163 | 836.13 | 12.2 | 0.00 |
| 2026-05-04 18:20 | 11.5 | 62.2 | 4.5 | 3.9 | 167 | 5.7 | 105 | 836.13 | 12.4 | 0.00 |
| 2026-05-04 18:15 | 11.8 | 70.7 | 6.6 | 3.7 | 62 | 5.0 | 67 | 836.12 | 14.1 | 0.00 |
| 2026-05-04 18:10 | 12.3 | 64.6 | 5.8 | 1.5 | 70 | 4.2 | 70 | 836.00 | 17.2 | 0.00 |
| 2026-05-04 18:05 | 12.1 | 62.3 | 5.1 | 1.8 | 203 | 2.7 | 185 | 835.92 | 17.8 | 0.00 |
| 2026-05-04 18:00 | 12.2 | 63.8 | 5.5 | 3.0 | 186 | 4.5 | 191 | 835.78 | 15.6 | 0.00 |
| 2026-05-04 17:55 | 12.1 | 61.9 | 5.0 | 3.4 | 197 | 4.5 | 211 | 835.73 | 13.8 | 0.00 |
| 2026-05-04 17:50 | 12.0 | 63.1 | 5.2 | 3.7 | 197 | 6.3 | 218 | 835.74 | 17.4 | 0.00 |
| 2026-05-04 17:45 | 11.9 | 64.5 | 5.4 | 3.2 | 211 | 5.5 | 195 | 835.75 | 22.6 | 0.00 |
| 2026-05-04 17:40 | 11.9 | 67.6 | 6.1 | 3.0 | 220 | 5.0 | 216 | 835.77 | 28.9 | 0.00 |
| 2026-05-04 17:35 | 12.0 | 65.7 | 5.8 | 3.9 | 210 | 6.1 | 188 | 835.69 | 35.5 | 0.00 |
| 2026-05-04 17:30 | 12.1 | 63.4 | 5.3 | 5.1 | 195 | 6.7 | 192 | 835.64 | 42.9 | 0.00 |
| 2026-05-04 17:25 | 12.0 | 64.7 | 5.5 | 5.8 | 184 | 8.0 | 196 | 835.68 | 48.0 | 0.25 |
| 2026-05-04 17:20 | 12.2 | 66.2 | 6.1 | 4.2 | 187 | 6.2 | 201 | 835.71 | 40.5 | 0.00 |
| 2026-05-04 17:15 | 12.8 | 62.7 | 5.9 | 3.9 | 154 | 6.3 | 153 | 835.75 | 27.0 | 0.00 |
| 2026-05-04 17:10 | 13.4 | 58.4 | 5.4 | 4.5 | 158 | 6.7 | 146 | 835.76 | 15.8 | 0.00 |
| 2026-05-04 17:05 | 14.2 | 53.0 | 4.8 | 2.7 | 189 | 4.4 | 207 | 835.77 | 10.7 | 0.25 |
| 2026-05-04 17:00 | 14.6 | 43.3 | 2.2 | 4.8 | 16 | 7.3 | 164 | 835.79 | 7.7 | 0.00 |
| 2026-05-04 16:55 | 14.7 | 43.3 | 2.4 | 8.1 | 143 | 13.4 | 245 | 835.46 | 6.8 | 0.00 |
| 2026-05-04 16:50 | 16.0 | 46.6 | 4.5 | 6.3 | 257 | 9.8 | 257 | 835.36 | 6.9 | 0.00 |
| 2026-05-04 16:45 | 16.2 | 35.3 | 0.8 | 4.6 | 250 | 5.6 | 258 | 835.34 | 7.7 | 0.00 |
| 2026-05-04 16:40 | 16.2 | 35.5 | 0.9 | 4.0 | 260 | 5.5 | 274 | 835.26 | 9.6 | 0.00 |
| 2026-05-04 16:35 | 16.3 | 35.5 | 1.0 | 4.3 | 258 | 4.9 | 274 | 835.21 | 11.2 | 0.00 |
| 2026-05-04 16:30 | 16.4 | 35.1 | 0.9 | 3.7 | 260 | 5.4 | 270 | 835.11 | 13.4 | 0.00 |
| 2026-05-04 16:25 | 16.5 | 33.5 | 0.4 | 3.5 | 276 | 4.5 | 276 | 834.95 | 17.9 | 0.00 |